Date String (YYYY-MM-DD hh:mm:ss) UTC,Instrument flags,absolute air pressure of the measurement (hPa),sample flow rate (lpm),inlet stack bypass flow (lpm),air temperature of the measurement (°C),ambient temperature measured by the external sensor (°C),aerosol sample conditioner tube jacket temperature (°C),OPC LED temperature (°C),internal box temperature (°C),relative humidity of the measurement (%),span deviation,mass concentration of particles derived from Lorenz-Mie calculation of OPC scattering (μg/m³),mass concentration of particles derived from Lorenz-Mie calculation of OPC scattering (μg/m³),mass concentration of particles derived from Lorenz-Mie calculation of OPC scattering (μg/m³)
DateTimeUTC,F1_M11,P_M11,Q1_M11,Q2_M11,T1_M11,T2_M11,T3_M11,T4_M11,T5_M11,U1_M11,ZSPAN_M11,X2_M11,X0_M11,X1_M11
2023-08-08 20:00:00,SystemResetWarning,0830.2,5.00,000.00,029.3,027.5,000.0,037.7,030.9,24.6,0000.0,0005.13,0012.30,0004.39
2023-08-08 20:01:00,SystemResetWarning,0830.2,4.98,000.00,029.3,027.3,000.0,037.7,030.9,25.1,0000.0,0005.07,0012.20,0004.36
2023-08-08 20:02:00,SystemResetWarning,0830.2,5.00,000.00,029.3,026.0,000.0,037.5,030.7,24.7,0000.0,0004.99,0012.03,0004.32
2023-08-08 20:03:00,SystemResetWarning,0830.2,5.01,000.00,029.3,025.7,000.0,037.5,030.6,23.5,0000.0,0004.91,0011.84,0004.29
2023-08-08 20:04:00,SystemResetWarning,0830.1,5.01,000.00,029.2,026.0,000.0,037.5,030.5,23.9,0000.0,0004.87,0010.88,0004.25
2023-08-08 20:05:00,SystemResetWarning,0830.1,5.00,000.00,029.2,026.3,000.0,037.5,030.6,25.1,0000.0,0004.85,0009.77,0004.25
2023-08-08 20:06:00,SystemResetWarning,0830.1,4.99,000.00,029.2,026.7,000.0,037.6,030.7,24.7,0000.0,0004.83,0009.89,0004.24
2023-08-08 20:07:00,SystemResetWarning,0830.1,5.01,000.00,029.2,027.0,000.0,037.6,030.8,24.3,0000.0,0004.87,0009.97,0004.28
2023-08-08 20:08:00,SystemResetWarning,0830.1,5.00,000.00,029.2,027.3,000.0,037.6,030.9,24.2,0000.0,0004.92,0009.74,0004.31
2023-08-08 20:09:00,SystemResetWarning,0830.1,4.99,000.00,029.3,027.6,000.0,037.6,030.9,22.6,0000.0,0004.94,0009.72,0004.32
2023-08-08 20:10:00,SystemResetWarning,0830.1,4.99,000.00,029.3,026.7,000.0,037.5,030.8,22.3,0000.0,0004.96,0009.75,0004.36
2023-08-08 20:11:00,SystemResetWarning,0830.1,5.00,000.00,029.2,025.2,000.0,037.4,030.5,23.0,0000.0,0005.00,0009.60,0004.39
2023-08-08 20:12:00,SystemResetWarning,0830.1,5.00,000.00,029.1,024.8,000.0,037.3,030.3,25.2,0000.0,0005.04,0009.72,0004.39
2023-08-08 20:13:00,SystemResetWarning,0830.1,5.00,000.00,029.1,025.1,000.0,037.4,030.3,25.4,0000.0,0005.01,0009.66,0004.37
2023-08-08 20:14:00,SystemResetWarning,0830.1,5.01,000.00,029.0,025.5,000.0,037.4,030.3,25.4,0000.0,0004.99,0009.80,0004.35
2023-08-08 20:15:00,SystemResetWarning,0830.2,5.00,000.00,029.0,026.0,000.0,037.4,030.4,26.1,0000.0,0004.99,0009.64,0004.35
2023-08-08 20:16:00,SystemResetWarning,0830.1,5.00,000.00,029.0,026.4,000.0,037.4,030.6,26.3,0000.0,0004.95,0009.46,0004.34
2023-08-08 20:17:00,SystemResetWarning,0830.2,5.00,000.00,029.0,026.8,000.0,037.5,030.7,25.8,0000.0,0004.94,0009.26,0004.34
2023-08-08 20:18:00,SystemResetWarning,0830.2,4.99,000.00,029.1,027.1,000.0,037.5,030.7,25.7,0000.0,0004.90,0009.00,0004.31
2023-08-08 20:19:00,SystemResetWarning,0830.2,5.00,000.00,029.1,027.4,000.0,037.5,030.8,25.2,0000.0,0004.85,0008.69,0004.29
2023-08-08 20:20:00,SystemResetWarning,0830.2,5.00,000.00,029.2,027.7,000.0,037.5,030.9,25.0,0000.0,0004.86,0009.21,0004.29
2023-08-08 20:21:00,SystemResetWarning,0830.3,4.99,000.00,029.2,027.1,000.0,037.5,030.8,25.3,0000.0,0004.87,0009.35,0004.28
2023-08-08 20:22:00,SystemResetWarning,0830.2,5.00,000.00,029.1,025.5,000.0,037.4,030.5,24.9,0000.0,0004.86,0009.62,0004.28
2023-08-08 20:23:00,SystemResetWarning,0830.1,5.02,000.00,029.1,024.8,000.0,037.3,030.3,25.2,0000.0,0004.81,0009.60,0004.27
2023-08-08 20:24:00,SystemResetWarning,0830.1,5.00,000.00,029.0,025.1,000.0,037.3,030.2,25.8,0000.0,0004.84,0009.64,0004.27
2023-08-08 20:25:00,SystemResetWarning,0830.1,5.00,000.00,028.9,025.4,000.0,037.3,030.2,26.8,0000.0,0004.88,0010.16,0004.29
2023-08-08 20:26:00,SystemResetWarning,0830.1,5.00,000.00,028.9,025.9,000.0,037.3,030.3,26.0,0000.0,0004.91,0010.30,0004.31
2023-08-08 20:27:00,SystemResetWarning,0830.1,5.00,000.00,028.9,026.3,000.0,037.3,030.5,27.3,0000.0,0004.92,0010.40,0004.31
2023-08-08 20:28:00,SystemResetWarning,0830.1,4.99,000.00,028.9,026.7,000.0,037.4,030.6,27.1,0000.0,0004.95,0010.60,0004.32
2023-08-08 20:29:00,SystemResetWarning,0830.1,4.99,000.00,029.0,027.1,000.0,037.4,030.7,27.3,0000.0,0004.98,0010.86,0004.32
2023-08-08 20:30:00,SystemResetWarning,0830.1,5.00,000.00,029.0,027.4,000.0,037.4,030.8,27.6,0000.0,0004.99,0010.75,0004.32
2023-08-08 20:31:00,SystemResetWarning,0830.1,5.01,000.00,029.1,027.6,000.0,037.4,030.8,27.5,0000.0,0004.96,0010.39,0004.32
2023-08-08 20:32:00,SystemResetWarning,0830.1,5.01,000.00,029.1,027.8,000.0,037.5,030.9,27.5,0000.0,0004.93,0010.24,0004.30
2023-08-08 20:33:00,SystemResetWarning,0830.1,4.99,000.00,029.1,026.8,000.0,037.4,030.8,26.9,0000.0,0004.90,0009.66,0004.27
2023-08-08 20:34:00,SystemResetWarning,0830.1,5.00,000.00,029.1,025.3,000.0,037.3,030.5,26.7,0000.0,0004.90,0009.41,0004.26
2023-08-08 20:35:00,SystemResetWarning,0830.1,5.01,000.00,029.0,025.0,000.0,037.2,030.4,26.9,0000.0,0004.86,0009.37,0004.26
2023-08-08 20:36:00,SystemResetWarning,0830.1,4.99,000.00,028.9,025.2,000.0,037.2,030.3,27.7,0000.0,0004.88,0008.76,0004.27
2023-08-08 20:37:00,SystemResetWarning,0830.1,5.00,000.00,028.9,025.6,000.0,037.3,030.3,28.5,0000.1,0004.87,0008.69,0004.26
2023-08-08 20:38:00,SystemResetWarning,0830.1,5.01,000.00,028.9,026.1,000.0,037.3,030.4,28.0,0000.0,0004.90,0008.98,0004.25
2023-08-08 20:39:00,SystemResetWarning,0830.2,5.01,000.00,028.9,026.5,000.0,037.3,030.5,27.4,0000.0,0004.90,0008.88,0004.24
2023-08-08 20:40:00,SystemResetWarning,0830.1,5.00,000.00,028.9,026.9,000.0,037.3,030.6,26.8,0000.0,0004.87,0008.60,0004.25
2023-08-08 20:41:00,SystemResetWarning,0830.2,5.00,000.00,029.0,027.2,000.0,037.4,030.7,26.4,0000.0,0004.87,0008.67,0004.25
2023-08-08 20:42:00,SystemResetWarning,0830.2,5.00,000.00,029.0,027.5,000.0,037.4,030.8,26.9,0000.0,0004.91,0008.76,0004.27
2023-08-08 20:43:00,SystemResetWarning,0830.1,5.00,000.00,029.1,027.7,000.0,037.4,030.9,26.4,0000.0,0004.95,0008.91,0004.28
2023-08-08 20:44:00,SystemResetWarning,0830.1,4.98,000.00,029.1,027.0,000.0,037.4,030.7,26.0,0000.0,0005.00,0009.02,0004.31
2023-08-08 20:45:00,SystemResetWarning,0830.0,5.00,000.00,029.1,025.4,000.0,037.2,030.5,24.7,0000.0,0005.03,0009.65,0004.32
2023-08-08 20:46:00,SystemResetWarning,0830.1,5.01,000.00,029.0,024.9,000.0,037.2,030.3,23.2,0000.0,0005.05,0009.71,0004.32
2023-08-08 20:47:00,SystemResetWarning,0830.0,5.00,000.00,028.9,025.1,000.0,037.2,030.2,21.3,0000.0,0005.03,0009.72,0004.31
2023-08-08 20:48:00,SystemResetWarning,0830.0,5.00,000.00,028.8,025.5,000.0,037.2,030.2,20.2,0000.0,0005.04,0009.75,0004.31
2023-08-08 20:49:00,SystemResetWarning,0830.1,5.00,000.00,028.9,026.0,000.0,037.2,030.4,20.2,0000.0,0005.00,0009.34,0004.31
2023-08-08 20:50:00,SystemResetWarning,0830.1,5.00,000.00,028.9,026.4,000.0,037.3,030.5,20.6,0000.0,0004.98,0009.22,0004.32
2023-08-08 20:51:00,SystemResetWarning,0830.1,5.01,000.00,028.9,026.8,000.0,037.3,030.6,21.2,0000.0,0005.01,0009.63,0004.32
2023-08-08 20:52:00,SystemResetWarning,0830.1,5.00,000.00,028.9,027.1,000.0,037.3,030.7,21.3,0000.0,0005.03,0010.33,0004.33
2023-08-08 20:53:00,SystemResetWarning,0830.2,5.00,000.00,029.0,027.4,000.0,037.3,030.8,20.9,0000.0,0005.06,0010.44,0004.34
2023-08-08 20:54:00,SystemResetWarning,0830.1,5.00,000.00,029.0,027.7,000.0,037.4,030.9,21.2,0000.0,0005.12,0011.28,0004.36
2023-08-08 20:55:00,SystemResetWarning,0830.1,4.98,000.00,029.1,027.3,000.0,037.3,030.8,20.8,0000.0,0005.15,0011.87,0004.36
2023-08-08 20:56:00,SystemResetWarning,0830.1,4.99,000.00,029.0,025.6,000.0,037.2,030.5,22.7,0000.0,0005.19,0011.53,0004.37
2023-08-08 20:57:00,SystemResetWarning,0830.0,5.00,000.00,029.0,024.8,000.0,037.1,030.3,23.2,0000.0,0005.18,0011.46,0004.38
2023-08-08 20:58:00,SystemResetWarning,0830.0,5.02,000.00,028.9,025.0,000.0,037.1,030.2,22.9,0000.0,0005.21,0012.60,0004.40
2023-08-08 20:59:00,SystemResetWarning,0830.1,5.00,000.00,028.8,025.3,000.0,037.1,030.2,23.8,0000.0,0005.20,0012.78,0004.42
